Preview of NWS' New Version of Forecast
This preview is not operational and should not be used for support decisions.

Regional Weather Roundup (RWR)

Issued by National Weather Service (NWS)

                            
000
ASUS43 KBIS 232002
RWRND 

NORTH DAKOTA REGIONAL WEATHER ROUNDUP
NATIONAL WEATHER SERVICE BISMARCK ND
300 PM CDT TUE APR 23 2019

NOTE: "FAIR" INDICATES FEW OR NO CLOUDS BELOW 12,000 FEET WITH NO
SIGNIFICANT WEATHER AND/OR OBSTRUCTIONS TO VISIBILITY.


NDZ001>003-009>011-017-232100-
NORTHWEST NORTH DAKOTA
  
CITY           SKY/WX    TMP DP  RH WIND       PRES   REMARKS
WILLISTON      PTSUNNY   71  39  31 W14G25    29.77F                  
MINOT          CLOUDY    67  39  35 S13       29.77F                  
MINOT AFB      CLOUDY    67  39  36 SW16      29.76F                  
$$
 
NDZ018>021-031>035-040>046-232100-
SOUTHWEST NORTH DAKOTA
  
CITY           SKY/WX    TMP DP  RH WIND       PRES   REMARKS
BISMARCK       SUNNY     74  37  26 W18G29    29.85F                  
DICKINSON      SUNNY     70  37  29 W20G28    29.83F                  
GARRISON         N/A     71  37  28 W21G28    29.79F                  
HETTINGER ARPT MOSUNNY   72  38  29 W15G31    29.88F                  
$$
 
NDZ004>008-012>016-024-026-027-054-232100-
NORTHEAST NORTH DAKOTA
  
CITY           SKY/WX    TMP DP  RH WIND       PRES   REMARKS
GRAND FORKS    CLOUDY    66  43  43 S21G29    29.91F                  
DEVILS LAKE    CLOUDY    59  35  40 SW14      29.85F                  
$$
 
NDZ022-023-025-028>030-036>039-047>053-232100-
SOUTHEAST NORTH DAKOTA
  
CITY           SKY/WX    TMP DP  RH WIND       PRES   REMARKS
FARGO          PTSUNNY   69  37  30 S17G24    29.95F                  
JAMESTOWN      PTSUNNY   70  32  24 SW22G37   29.89F                  
$$